Winner, SD

7:10 AM CDT on April 26, 2017 (GMT -0500)
Winner

Weather History for KICR - May, 2013

Change the Weather History Date:

Tuesday, May 21, 2013

  Actual Average Record
Temperature  
Mean Temperature 49 °F 60 °F  
Max Temperature 51 °F 72 °F 83 °F (2012)
Min Temperature 47 °F 48 °F 40 °F (2015)
Degree Days  
Heating Degree Days 16 6  
Month to date heating degree days 200 192  
Since 1 July heating degree days 6602 6596  
Cooling Degree Days 0 1  
Month to date cooling degree days 31 16  
Year to date cooling degree days 33 18  
Moisture  
Dew Point 46 °F    
Average Humidity 90    
Maximum Humidity 93    
Minimum Humidity 86    
Precipitation  
Precipitation 0.24 in 0.10 in 0.24 in (2013)
Month to date precipitation 3.52 2.22  
Year to date precipitation 4.98 6.85  
Sea Level Pressure  
Sea Level Pressure 29.73 in    
Wind  
Wind Speed 23 mph (NW)    
Max Wind Speed 35 mph    
Max Gust Speed 45 mph    
Visibility 5 miles    
Events Rain    
T = Trace of Precipitation, MM = Missing Value Source: NWS Daily Summary

Daily Weather History Graph

Daily Weather History Graph

Search for Another Location

Airport or City:

Trip Planner

Search our weather history database for the weather conditions in past years. The results will help you decide how hot, cold, wet, or windy it might be!

Date:

Astronomy

May. 21, 2013 Rise Set
Actual Time 6:09 AM CDT 9:03 PM CDT
Civil Twilight 5:35 AM CDT 9:37 PM CDT
Nautical Twilight 4:52 AM CDT 10:20 PM CDT
Astronomical Twilight 4:02 AM CDT 11:10 PM CDT
Moon 5:13 PM CDT (5/21) 3:44 AM CDT (5/21)
Length of Visible Light 16h 01m
Length of Day
14h 54m
Waxing Gibbous, 84% of the Moon is Illuminated
May 21
Waxing Gibbous
May 24
Full
May 31
Last Quarter
Jun 8
New
Jun 16
First Quarter

Hourly Weather History & Observations

Time (CDT) Temp. Windchill Dew Point Humidity Pressure Visibility Wind Dir Wind Speed Gust Speed Precip Events Conditions
12:09 AM 51.8 °F - 48.2 °F 88% 29.62 in 10.0 mi WNW 23.0 mph 31.1 mph 0.00 in   Overcast
12:43 AM 51.8 °F - 48.2 °F 88% 29.63 in 10.0 mi WNW 21.9 mph 31.1 mph 0.00 in   Overcast
12:53 AM 51.1 °F - 48.0 °F 89% 29.62 in 9.0 mi NW 21.9 mph 29.9 mph 0.00 in   Overcast
1:00 AM 51.8 °F - 48.2 °F 88% 29.63 in 8.0 mi WNW 21.9 mph 29.9 mph N/A   Overcast
1:53 AM 50.0 °F - 48.0 °F 93% 29.62 in 10.0 mi WNW 24.2 mph 31.1 mph 0.00 in Rain Light Rain
2:40 AM 50.0 °F - 46.4 °F 87% 29.62 in 10.0 mi WNW 24.2 mph 31.1 mph 0.00 in   Overcast
2:53 AM 50.0 °F - 46.9 °F 89% 29.62 in 7.0 mi WNW 23.0 mph 32.2 mph 0.00 in   Overcast
2:59 AM 48.2 °F - 46.4 °F 93% 29.62 in 3.0 mi WNW 23.0 mph 32.2 mph 0.00 in Rain Light Rain
3:53 AM 48.9 °F - 46.9 °F 93% 29.62 in 3.0 mi WNW 25.3 mph 34.5 mph 0.01 in Rain Light Rain
4:22 AM 48.2 °F - 46.4 °F 93% 29.62 in 4.0 mi WNW 23.0 mph 31.1 mph 0.00 in Rain Light Rain
4:33 AM 48.2 °F - 46.4 °F 93% 29.62 in 5.0 mi WNW 25.3 mph 33.4 mph 0.00 in Rain Light Rain
4:53 AM 48.0 °F - 46.0 °F 93% 29.62 in 3.0 mi WNW 23.0 mph 32.2 mph 0.00 in Rain Light Rain
5:36 AM 48.2 °F - 46.4 °F 93% 29.62 in 5.0 mi WNW 27.6 mph 36.8 mph 0.01 in Rain Light Rain
5:53 AM 48.0 °F - 46.0 °F 93% 29.62 in 7.0 mi WNW 25.3 mph 35.7 mph 0.02 in Rain Light Rain
6:53 AM 48.0 °F - 45.0 °F 89% 29.62 in 4.0 mi WNW 33.4 mph 40.3 mph 0.01 in Rain Light Rain
7:13 AM 48.2 °F - 44.6 °F 87% 29.62 in 3.0 mi WNW 28.8 mph 39.1 mph 0.00 in Rain Light Rain
7:21 AM 46.4 °F 37.7 °F 44.6 °F 93% 29.62 in 2.0 mi WNW 26.5 mph 42.6 mph 0.01 in Rain Light Rain
7:36 AM 46.4 °F 37.0 °F 44.6 °F 93% 29.62 in 1.8 mi WNW 31.1 mph 44.9 mph 0.01 in Rain Light Rain
7:53 AM 46.9 °F - 45.0 °F 93% 29.63 in 1.8 mi WNW 32.2 mph 42.6 mph 0.02 in Rain Light Rain
8:11 AM 46.4 °F 37.4 °F 44.6 °F 93% 29.64 in 1.5 mi WNW 28.8 mph 41.4 mph 0.01 in Rain Light Rain
8:53 AM 48.0 °F - 46.0 °F 93% 29.66 in 1.8 mi WNW 28.8 mph 41.4 mph 0.02 in Rain Light Rain
9:03 AM 48.2 °F - 46.4 °F 93% 29.66 in 2.0 mi WNW 27.6 mph 40.3 mph 0.00 in Rain Light Rain
9:15 AM 48.2 °F - 46.4 °F 93% 29.67 in 1.8 mi WNW 28.8 mph 38.0 mph 0.01 in Rain Light Rain
9:22 AM 48.2 °F - 46.4 °F 93% 29.67 in 2.5 mi WNW 27.6 mph 38.0 mph 0.01 in Rain Light Rain
9:53 AM 48.0 °F - 46.0 °F 93% 29.70 in 2.5 mi NW 26.5 mph 39.1 mph 0.01 in Rain Light Rain
10:01 AM 48.2 °F - 46.4 °F 93% 29.69 in 3.0 mi WNW 26.5 mph 38.0 mph 0.00 in Rain Light Rain
10:11 AM 48.2 °F - 46.4 °F 93% 29.70 in 4.0 mi WNW 28.8 mph 36.8 mph 0.00 in Rain Light Rain
10:53 AM 48.9 °F - 46.0 °F 90% 29.72 in 8.0 mi NW 25.3 mph 36.8 mph 0.01 in Rain Light Rain
11:08 AM 48.2 °F - 46.4 °F 93% 29.71 in 2.0 mi NW 26.5 mph 41.4 mph 0.01 in Rain Light Rain
11:16 AM 48.2 °F - 46.4 °F 93% 29.72 in 1.8 mi NW 28.8 mph 38.0 mph 0.02 in Rain Light Rain
11:27 AM 48.2 °F - 46.4 °F 93% 29.72 in 2.0 mi NW 25.3 mph 33.4 mph 0.03 in Rain Light Rain
11:37 AM 48.2 °F - 46.4 °F 93% 29.72 in 1.8 mi NW 26.5 mph 39.1 mph 0.03 in Rain Light Rain
11:41 AM 48.2 °F - 46.4 °F 93% 29.73 in 2.5 mi NW 31.1 mph 39.1 mph 0.03 in Rain Light Rain
11:53 AM 48.0 °F - 46.0 °F 93% 29.74 in 4.0 mi NW 24.2 mph 36.8 mph 0.04 in Rain Light Rain
12:05 PM 48.2 °F - 46.4 °F 93% 29.74 in 2.0 mi NW 26.5 mph 35.7 mph 0.00 in Rain Light Rain
12:26 PM 48.2 °F - 46.4 °F 93% 29.74 in 1.8 mi NW 23.0 mph 34.5 mph 0.01 in Rain Light Rain
12:31 PM 48.2 °F - 46.4 °F 93% 29.74 in 2.5 mi NW 31.1 mph 39.1 mph 0.01 in Rain Light Rain
12:53 PM 48.0 °F - 46.0 °F 93% 29.76 in 2.5 mi NW 24.2 mph 38.0 mph 0.02 in Rain Light Rain
1:02 PM 48.2 °F - 46.4 °F 93% 29.76 in 2.0 mi NW 28.8 mph 38.0 mph 0.00 in Rain Light Rain
1:11 PM 48.2 °F - 46.4 °F 93% 29.76 in 2.0 mi NW 25.3 mph 33.4 mph 0.00 in Rain Light Rain
1:27 PM 48.2 °F - 46.4 °F 93% 29.76 in 3.0 mi NW 26.5 mph 38.0 mph 0.01 in Rain Light Rain
1:35 PM 48.2 °F - 46.4 °F 93% 29.76 in 2.0 mi NW 23.0 mph 34.5 mph 0.01 in Rain Light Rain
1:43 PM 48.2 °F - 46.4 °F 93% 29.76 in 1.5 mi NW 26.5 mph 35.7 mph 0.02 in Rain Light Rain
1:53 PM 48.9 °F - 46.9 °F 93% 29.77 in 1.8 mi NW 24.2 mph 33.4 mph 0.02 in Rain Light Rain
2:08 PM 50.0 °F - 48.2 °F 94% 29.76 in 2.5 mi NW 27.6 mph 34.5 mph 0.01 in Rain Light Rain
2:17 PM 50.0 °F - 48.2 °F 94% 29.77 in 4.0 mi NW 23.0 mph 32.2 mph 0.01 in Rain Light Rain
2:35 PM 50.0 °F - 46.4 °F 87% 29.77 in 4.0 mi NW 26.5 mph 36.8 mph 0.01 in Rain Light Rain
2:48 PM 50.0 °F - 46.4 °F 87% 29.78 in 7.0 mi NW 26.5 mph 34.5 mph 0.01 in Rain Light Rain
2:53 PM 50.0 °F - 46.9 °F 89% 29.79 in 10.0 mi NW 23.0 mph 34.5 mph 0.01 in Rain Light Rain
3:53 PM 50.0 °F - 46.9 °F 89% 29.81 in 4.0 mi NW 23.0 mph 28.8 mph 0.00 in Rain Light Rain
4:10 PM 50.0 °F - 46.4 °F 87% 29.81 in 10.0 mi NNW 24.2 mph 28.8 mph 0.00 in Rain Light Rain
4:19 PM 50.0 °F - 46.4 °F 87% 29.81 in 6.0 mi NW 23.0 mph 33.4 mph 0.01 in Rain Light Rain
4:53 PM 48.9 °F - 46.0 °F 90% 29.83 in 3.0 mi NNW 23.0 mph 28.8 mph 0.02 in Rain Light Rain
5:22 PM 48.2 °F - 46.4 °F 93% 29.82 in 3.0 mi NW 20.7 mph 28.8 mph 0.00 in Rain Light Rain
5:53 PM 48.0 °F - 45.0 °F 89% 29.85 in 5.0 mi NW 19.6 mph 29.9 mph 0.00 in Rain Light Rain
6:09 PM 48.2 °F - 46.4 °F 93% 29.83 in 3.0 mi NW 18.4 mph 26.5 mph 0.00 in Rain Light Rain
6:42 PM 48.2 °F - 46.4 °F 93% 29.82 in 9.0 mi NW 24.2 mph 29.9 mph 0.01 in Rain Light Rain
6:53 PM 48.0 °F - 46.0 °F 93% 29.83 in 10.0 mi NW 24.2 mph 32.2 mph 0.01 in Rain Light Rain
7:14 PM 48.2 °F - 44.6 °F 87% 29.82 in 10.0 mi NNW 21.9 mph 32.2 mph 0.00 in Rain Light Rain
7:18 PM 48.2 °F - 44.6 °F 87% 29.82 in 10.0 mi NNW 23.0 mph 32.2 mph 0.00 in Rain Light Rain
7:36 PM 46.4 °F 38.7 °F 44.6 °F 93% 29.82 in 9.0 mi NNW 20.7 mph 28.8 mph 0.00 in Rain Light Rain
7:51 PM 46.4 °F 38.5 °F 44.6 °F 93% 29.82 in 7.0 mi NNW 21.9 mph 26.5 mph 0.00 in Rain Light Rain
7:53 PM 46.9 °F - 45.0 °F 93% 29.84 in 7.0 mi NNW 20.7 mph 26.5 mph 0.00 in Rain Light Rain
8:03 PM 46.4 °F 39.0 °F 44.6 °F 93% 29.82 in 4.0 mi NNW 19.6 mph - 0.00 in Rain Light Rain
8:43 PM 48.2 °F - 44.6 °F 87% 29.84 in 10.0 mi NNW 16.1 mph 25.3 mph 0.00 in Rain Light Rain
8:50 PM 46.4 °F 39.8 °F 44.6 °F 93% 29.84 in 10.0 mi NNW 16.1 mph - 0.00 in Rain Light Rain
8:53 PM 46.9 °F - 45.0 °F 93% 29.86 in 10.0 mi NNW 18.4 mph 24.2 mph 0.00 in   Overcast
9:53 PM 46.9 °F - 45.0 °F 93% 29.88 in 7.0 mi NW 17.3 mph - 0.00 in Rain Light Rain
10:53 PM 46.9 °F - 45.0 °F 93% 29.90 in 6.0 mi NW 16.1 mph - 0.00 in   Overcast
11:53 PM 46.9 °F - 45.0 °F 93% 29.90 in 4.0 mi NW 13.8 mph - 0.01 in Rain Light Rain